Regional Weather Roundup
Issued by NWS Charleston, SC

Current Version | Previous Version | Graphics & Text | Print | Product List | Glossary On
Versions: 1 2 3 4 5 6 7 8 9 10 11 12 13 14 15 16 17 18 19 20 21 22 23 24 25 26 27 28 29 30 31 32 33 34 35 36 37 38 39 40 41 42 43 44 45 46 47 48 49 50
000
ASUS42 KCHS 030827
RWRCHS

REGIONAL WEATHER ROUNDUP
NATIONAL WEATHER SERVICE CHARLESTON SC
400 AM EDT THU SEP 03 2015

NOTE: "FAIR" INDICATES FEW OR NO CLOUDS BELOW 12,000 FEET WITH NO
SIGNIFICANT WEATHER AND/OR OBSTRUCTIONS TO VISIBILITY.

NOT ALL STATIONS ARE QUALITY CONTROLLED BY THE NATIONAL
WEATHER SERVICE. USE DATA WITH CAUTION...ESPECIALLY
DEWPOINT OBSERVATIONS.

SCZ027-030-031-034>040-042>050-030900-
...SOUTHEAST SOUTH CAROLINA...

CITY           SKY/WX    TMP DP  RH WIND       PRES   REMARKS
N CHARLESTON   PTCLDY    75  73  93 SW3       29.95F
WATERFRONT PRK   N/A     78  75  90 CALM      29.93F
MOUNT PLEASANT FAIR      73  73 100 CALM      29.95F FOG
JOHNS ISLAND   FAIR      75  73  94 CALM      29.95S
PINOPOLIS        N/A     81  73  78 VRB3      29.87F
MONCKS CORNER  FAIR      73  72  94 CALM      29.95S FOG
SUMMERVILLE    FAIR      72  72 100 CALM      29.96S
BEAUFORT MCAS  MOCLDY    76  74  93 N6        29.95F
BEAUFORT ARPT  FAIR      77  75  94 N5        29.94S
HILTON HEAD IS CLOUDY    77  77 100 NW3       29.95S
WALTERBORO     SUNNY     73  72  94 CALM      29.96F
ALLENDALE      FAIR      72  72 100 CALM      29.95S FOG

...SOUTHERN MIDLANDS AND PEE DEE...

CITY           SKY/WX    TMP DP  RH WIND       PRES   REMARKS
GEORGETOWN     NOT AVBL
KINGSTREE      NOT AVBL
ORANGEBURG     PTCLDY    73  71  93 SW3       29.96F
BARNWELL       FAIR      73  73 100 CALM      29.97S
AIKEN          FAIR      70  70 100 CALM      30.00S
MANNING        FAIR      72  72 100 CALM      29.95S
COLUMBIA       MOCLDY    75  71  87 CALM      29.94F
SUMTER         MOCLDY    76  72  86 SW1       29.93S
FLORENCE       CLOUDY    76  73  91 SW5       29.94F
MYRTLE BEACH   PTCLDY    75  72  88 W3        29.96S
N MYRTLE BEACH CLEAR     76  73  91 W6        29.94S

$$

GAZ063-065-086>088-099>101-113>116-118-119-134>141-150-030900-
...SOUTHEAST GEORGIA...

CITY           SKY/WX    TMP DP  RH WIND       PRES   REMARKS
SAVANNAH ARPT  MOCLDY    75  73  93 N3        29.95S
HUNTER AAF     PTCLDY    77  77 100 N3        29.92S FOG
FORT STEWART   CLOUDY    75  73  94 CALM      29.92S
STATESBORO     CLOUDY    73  32  22 CALM      29.96S
SYLVANIA       NOT AVBL
CLAXTON        NOT AVBL

...CSRA...CENTRAL AND FAR SOUTHEAST GEORGIA...

CITY           SKY/WX    TMP DP  RH WIND       PRES   REMARKS
THOMSON        MOCLDY    74  74 100 CALM      30.00F
AUGUSTA-BUSH   MOCLDY    72  71  97 CALM      29.95F
AUGUSTA-DANIEL MOCLDY    76  71  85 CALM      29.97F
SWAINSBORO     FAIR      72  70  94 CALM      29.97F
VIDALIA        CLEAR     73  72  94 CALM      29.96F
EASTMAN        FOG       74  74 100 CALM      29.99S VSB 1/4
HAZLEHURST     FOG       73  73 100 CALM      29.95S VSB 1/4
ALMA           CLOUDY    73  73 100 N3        29.95F FOG
WAYCROSS       CLOUDY    77  77 100 NW6       29.89S
JESUP          CLOUDY    77  77 100 NW3       29.94S FOG
BAXLEY         CLOUDY    75  73  94 W5        29.95S
BRUNSWICK      CLOUDY    72  72 100 SW7       29.93F
SAINT SIMONS   PTCLDY    75  74  96 SW6       29.92F

$$

SCZ027-028-034-036>038-045-046-048>050-GAZ119-141-030900-
...LAKE AND SUPPLEMENTAL COASTAL OBSERVATIONS...

STATION/POSITION TIME  TEMP    WIND        PRES    WAVE   SWELL
                       AIR SEA DIR/SP/G            HT/PER HT/PER/DIR
                 (UTC) (F)     (DEG/KT/KT) (MB)    (FT/S) (FT/S/D)
UPR LAKE MARION  NOT AVBL
WINYAH BAY       0700   77     300/  2     1013.0
LAKE MURRAY      0700   79     240/  1/  4 1013.9F
ACE BASIN NERRS  NOT AVBL
FORT PULASKI     0800   80 83  110/  4/  5 1014.2F
SAPELO ISLAND    0800   78     240/  7     1013.0F

$$

ANZ835-935-AMZ111-154-330-350-352-354-370-450-454-472-030900-
...C-MAN AND BUOY OBSERVATIONS...

STATION/POSITION TIME  TEMP    WIND        PRES    WAVE   SWELL
                       AIR SEA DIR/SP/G            HT/PER HT/PER/DIR
                 (UTC) (F)     (DEG/KT/KT) (MB)    (FT/S) (FT/S/D)
BUOY 41004       0750   82 84  270/  4/  4 1014.0F   2/ 9   2/ 9
BUOY 41008       0750   78 84  120/  8/  8 1013.5F   2/ 9   2/110/ 9
FOLLY BEACH CMAN 0800   77     310/  3/  3 1014.4F
CAPERS NEARSHORE 0708   81     300/  4/  6 1014.5F
FRIPP NEARSHORE  0700   82     200/  6/  6 1014.0F


STATION/POSITION TIME  TEMP    WIND        PRES    WAVE   SWELL
                       AIR SEA DIR/SP/G            HT/PER HT/PER/DIR
                 (UTC) (F)     (DEG/KT/KT) (MB)    (FT/S) (FT/S/D)
5E ST. MARYS GA  0721      85                N/A     2/10
FRYING PAN BUOY  0750   82 81  270/  8/ 10 1014.3F   2/ 3   2/120/ 9
BUOY 41025       0750   80 85  310/ 12/ 16 1013.3F   2/13   2/260/13
CAPE LOOKOUT NC  0800   74     360/  4/  5 1013.2F
BUOY 41002       0750   82 83  300/  8/ 10 1013.6F   2/ 9   2/110/ 9
BUOY 41010       0720   84 86  150/  8/ 10 1014.7F
ST AUGUSTINE FL  0800   76 83  250/  5/  6 1014.8F


$$



USA.gov is the U.S. government's official web portal to all federal, state and local government web resources and services.